TimeEDT,TemperatureF,Dew PointF,Humidity,Sea Level PressureIn,VisibilityMPH,Wind Direction,Wind SpeedMPH,Gust SpeedMPH,PrecipitationIn,Events,Conditions,WindDirDegrees,DateUTC
12:15 AM,73.4,71.6,94,30.14,10.0,ESE,5.8,-,N/A,,Overcast,110,2013-07-04 04:15:00
12:35 AM,73.4,71.6,94,30.14,10.0,East,4.6,-,N/A,,Scattered Clouds,90,2013-07-04 04:35:00
12:55 AM,71.6,71.6,100,30.14,10.0,SE,6.9,-,N/A,,Clear,130,2013-07-04 04:55:00
1:15 AM,71.6,69.8,94,30.13,10.0,East,4.6,-,N/A,,Scattered Clouds,100,2013-07-04 05:15:00
1:35 AM,71.6,69.8,94,30.13,10.0,SE,6.9,-,N/A,,Scattered Clouds,130,2013-07-04 05:35:00
1:55 AM,71.6,69.8,94,30.12,10.0,ESE,4.6,-,N/A,,Scattered Clouds,120,2013-07-04 05:55:00
2:15 AM,71.6,69.8,94,30.12,10.0,East,4.6,-,N/A,,Clear,100,2013-07-04 06:15:00
2:35 AM,71.6,71.6,100,30.11,10.0,ESE,6.9,-,N/A,,Clear,120,2013-07-04 06:35:00
2:55 AM,71.6,69.8,94,30.11,10.0,ESE,6.9,-,N/A,,Clear,110,2013-07-04 06:55:00
3:15 AM,71.6,69.8,94,30.10,10.0,ESE,5.8,-,N/A,,Clear,110,2013-07-04 07:15:00
3:35 AM,71.6,69.8,94,30.10,10.0,ESE,5.8,-,N/A,,Clear,120,2013-07-04 07:35:00
3:55 AM,71.6,69.8,94,30.09,10.0,SE,3.5,-,N/A,,Clear,140,2013-07-04 07:55:00
4:15 AM,71.6,69.8,94,30.09,10.0,Calm,Calm,-,N/A,,Clear,0,2013-07-04 08:15:00
4:35 AM,71.6,69.8,94,30.10,10.0,East,4.6,-,N/A,,Clear,100,2013-07-04 08:35:00
4:55 AM,71.6,69.8,94,30.09,10.0,ESE,4.6,-,N/A,,Clear,120,2013-07-04 08:55:00
5:15 AM,71.6,69.8,94,30.10,10.0,SE,3.5,-,N/A,,Clear,130,2013-07-04 09:15:00
5:35 AM,71.6,69.8,94,30.09,10.0,ESE,4.6,-,N/A,,Clear,110,2013-07-04 09:35:00
5:55 AM,71.6,69.8,94,30.10,10.0,East,4.6,-,N/A,,Clear,100,2013-07-04 09:55:00
5:56 AM,71.6,69.8,94,30.10,12.0,East,4.6,-,N/A,,Scattered Clouds,100,2013-07-04 09:56:00
6:15 AM,71.6,69.8,94,30.11,10.0,ESE,3.5,-,N/A,,Clear,110,2013-07-04 10:15:00
6:35 AM,71.6,69.8,94,30.11,10.0,ESE,5.8,-,N/A,,Clear,110,2013-07-04 10:35:00
6:52 AM,71.6,69.8,94,30.11,12.0,ESE,4.6,-,N/A,,Mostly Cloudy,110,2013-07-04 10:52:00
7:55 AM,75.2,71.6,89,30.13,12.0,East,10.4,-,N/A,,Mostly Cloudy,100,2013-07-04 11:55:00
8:50 AM,78.8,73.4,83,30.14,12.0,ESE,8.1,-,N/A,,Mostly Cloudy,110,2013-07-04 12:50:00
9:50 AM,82.4,73.4,74,30.14,12.0,SE,17.3,24.2,N/A,,Mostly Cloudy,140,2013-07-04 13:50:00
10:51 AM,84.2,71.6,66,30.14,12.0,SSE,17.3,-,N/A,,Overcast,150,2013-07-04 14:51:00
11:53 AM,84.2,71.6,66,30.14,12.0,SSE,11.5,-,N/A,,Overcast,150,2013-07-04 15:53:00
12:50 PM,82.4,71.6,70,30.14,12.0,SE,9.2,-,N/A,,Overcast,130,2013-07-04 16:50:00
1:50 PM,86.0,73.4,66,30.13,12.0,SSE,6.9,-,N/A,,Overcast,160,2013-07-04 17:50:00
2:50 PM,87.8,69.8,55,30.11,12.0,South,11.5,-,N/A,,Overcast,180,2013-07-04 18:50:00
3:50 PM,87.8,69.8,55,30.09,12.0,SE,6.9,-,N/A,,Overcast,140,2013-07-04 19:50:00
4:50 PM,82.4,66.2,58,30.11,1.0,South,25.3,39.1,N/A,Rain,Heavy Rain,180,2013-07-04 20:50:00
5:11 PM,71.6,64.4,78,30.10,12.0,SSE,9.2,-,N/A,Rain-Thunderstorm,Light Thunderstorms and Rain,160,2013-07-04 21:11:00
5:50 PM,71.6,69.8,94,30.11,12.0,Calm,Calm,-,N/A,,Overcast,0,2013-07-04 21:50:00
6:50 PM,73.4,71.6,94,30.12,12.0,NW,3.5,-,N/A,,Overcast,310,2013-07-04 22:50:00
7:50 PM,71.6,69.8,94,30.14,15.0,WNW,3.5,-,N/A,,Overcast,300,2013-07-04 23:50:00
8:50 PM,73.4,71.6,94,30.15,10.0,Calm,Calm,-,N/A,,Overcast,0,2013-07-05 00:50:00
9:50 PM,71.6,69.8,94,30.16,10.0,NE,5.8,-,N/A,,Scattered Clouds,40,2013-07-05 01:50:00
10:55 PM,71.6,69.8,94,30.17,2.0,NNE,3.5,-,N/A,,Clear,20,2013-07-05 02:55:00
11:15 PM,71.6,69.8,94,30.17,1.2,North,3.5,-,N/A,,Mist,350,2013-07-05 03:15:00
11:35 PM,71.6,69.8,94,30.17,1.2,NNW,3.5,-,N/A,,Mist,340,2013-07-05 03:35:00
11:55 PM,71.6,69.8,94,30.18,1.5,North,3.5,-,N/A,,Mostly Cloudy,10,2013-07-05 03:55:00